User: anonymous   Login
Location: Unspecified
(0.0000°N, 0.0000°E)
Time: 03:55:45
(UTC+00:00)
Language:

MUOS - Orbit

View from above orbital plane
View from above orbital plane
View from above satellite
View from above satellite

Ground track
Ground track

The orbit data is extracted from the following two-line orbital elements,

1 38093U 12009A   18249.49801004 0.00000000  00000-0  00000-0 0    08
2 38093   2.8332 347.7560 0054476 174.7363 185.3351  1.00270000    08
Epoch (UTC): 06 September 2018 11:57:08
Eccentricity: 0.0054476
inclination: 2.8332°
perigee height: 35557 km
apogee height: 36016 km
right ascension of ascending node: 347.7560°
argument of perigee: 174.7363°
revolutions per day: 1.00270000
mean anomaly at epoch: 185.3351°
orbit number at epoch: 0

The dashed part of the orbit path shows where the satellite is in the earth's shadow,  

DLR